DW7780 Weather Reports


time (UTC)temp
C
wind
direction
speed
KPH
gust
KPH
rain 1hr
cm
rain 24hr
cm
rain mn
cm
humidity
%
barometer
mb
20260508133029 12 0 0.0 4.8 0.00 0.03 0.00 53 1013.6
20260508131528 12 0 0.0 6.4 0.00 0.03 0.00 51 1013.8
20260508130030 11 0 0.0 4.8 0.00 0.03 0.00 55 1013.8
20260508124526 11 0 0.0 4.8 0.00 0.03 0.00 63 1014.0
20260508123027 10 0 0.0 6.4 0.00 0.03 0.00 70 1013.9
20260508121530 9 0 0.0 0.0 0.00 0.03 0.00 76 1013.7
20260508120027 8 0 0.0 1.6 0.00 0.03 0.00 80 1013.5
20260508114528 7 0 0.0 0.0 0.00 0.03 0.00 85 1013.5
20260508113028 6 0 0.0 0.0 0.00 0.03 0.00 89 1013.7
20260508111526 5 0 0.0 0.0 0.00 0.03 0.00 89 1013.6
20260508110027 4 0 0.0 0.0 0.00 0.03 0.00 88 1013.5
20260508104538 4 0 0.0 0.0 0.00 0.03 0.00 88 1013.5
20260508103034 4 0 0.0 0.0 0.00 0.03 0.00 86 1013.4
20260508101527 4 0 0.0 0.0 0.00 0.03 0.00 85 1013.2
20260508100029 5 0 0.0 0.0 0.00 0.03 0.00 84 1012.9
20260508094527 5 0 0.0 0.0 0.00 0.03 0.00 83 1012.9
20260508093028 5 0 0.0 0.0 0.00 0.03 0.00 82 1012.8
20260508091527 6 0 0.0 0.0 0.00 0.03 0.00 80 1012.7
20260508090031 6 0 0.0 0.0 0.00 0.03 0.00 79 1012.6
20260508084528 7 0 0.0 0.0 0.00 0.03 0.00 78 1012.4
20260508083025 7 0 0.0 0.0 0.00 0.03 0.00 77 1012.2
20260508081528 8 0 0.0 8.0 0.00 0.03 0.00 74 1011.9
20260508080028 8 0 0.0 3.2 0.00 0.03 0.00 74 1011.8
20260508074528 8 0 0.0 3.2 0.00 0.18 0.00 73 1011.4
20260508073028 9 0 0.0 6.4 0.00 0.18 0.00 73 1011.4
20260508071528 9 286 0.0 11.3 0.00 0.18 0.00 72 1011.2
20260508070041 9 0 0.0 6.4 0.00 0.18 0.00 72 1010.9
20260508064534 9 0 0.0 14.5 0.00 0.43 0.00 72 1010.8
20260508063028 9 0 0.0 14.5 0.00 0.43 0.00 74 1010.7
20260508061528 8 0 0.0 3.2 0.00 0.43 0.00 77 1010.0
20260508060032 8 0 0.0 9.7 0.00 0.43 0.00 78 1009.4
20260508054530 8 0 0.0 1.6 0.00 0.86 0.00 86 1009.8
20260508053031 8 0 0.0 6.4 0.00 0.86 0.00 87 1009.9
20260508051528 8 0 0.0 0.0 0.00 0.86 0.00 86 1009.4
20260508050030 8 0 0.0 0.0 0.00 0.86 0.00 86 1009.3
20260508044528 8 0 0.0 0.0 0.00 0.91 0.00 85 1009.4
20260508043048 8 0 0.0 1.6 0.00 0.91 0.00 84 1009.7
20260508041528 8 0 0.0 0.0 0.00 0.91 0.00 83 1009.3
20260508040030 8 0 0.0 0.0 0.00 0.91 0.00 83 1009.2
20260508034529 8 0 0.0 0.0 0.00 0.91 0.91 82 1009.0
20260508033032 8 0 0.0 0.0 0.00 0.91 0.91 83 1008.9
20260508031528 7 0 0.0 0.0 0.00 0.91 0.91 83 1009.0
20260508030042 7 0 0.0 0.0 0.00 0.91 0.91 82 1009.0
20260508024533 7 0 0.0 0.0 0.00 0.94 0.91 82 1009.0
20260508023026 8 0 0.0 0.0 0.00 0.94 0.91 80 1008.9
20260508021538 8 0 0.0 0.0 0.00 0.94 0.91 80 1008.8
20260508020027 8 0 0.0 0.0 0.00 0.94 0.91 76 1009.0
20260508014529 8 0 0.0 0.0 0.00 0.97 0.91 77 1008.6
20260508013029 9 0 0.0 0.0 0.00 0.97 0.91 72 1008.6
20260508011532 10 0 0.0 0.0 0.00 0.97 0.91 74 1008.5
20260508010031 10 0 0.0 0.0 0.00 0.97 0.91 72 1008.6
20260508004529 11 0 0.0 0.0 0.00 0.97 0.91 66 1008.5
20260508003030 12 0 0.0 0.0 0.00 0.97 0.91 63 1008.2
20260508001528 13 0 0.0 0.0 0.00 0.97 0.91 60 1008.0
20260508000029 14 0 0.0 0.0 0.00 0.97 0.91 54 1007.8
20260507234536 15 0 0.0 0.0 0.00 0.97 0.91 54 1007.7
20260507233028 16 0 0.0 6.4 0.00 0.97 0.91 43 1007.6
20260507231530 16 303 1.6 9.7 0.00 0.97 0.91 40 1007.5
20260507230028 17 0 0.0 9.7 0.00 0.97 0.91 39 1007.4
20260507224529 17 0 0.0 3.2 0.03 0.97 0.91 39 1007.3
20260507223028 17 0 0.0 11.3 0.03 0.97 0.91 39 1007.4
20260507221528 17 0 0.0 9.7 0.03 0.97 0.91 38 1007.4
20260507220030 17 0 0.0 14.5 0.03 0.97 0.91 35 1007.4
20260507214530 17 293 1.6 12.9 0.00 0.94 0.89 35 1007.4
20260507213029 17 302 1.6 9.7 0.00 0.94 0.89 38 1007.5
20260507211530 17 297 0.0 9.7 0.00 0.94 0.89 39 1007.4
20260507210029 16 0 0.0 11.3 0.00 0.94 0.89 40 1007.3
20260507204530 17 78 0.0 9.7 0.00 0.94 0.89 37 1007.3
20260507203028 17 0 0.0 6.4 0.00 0.94 0.89 41 1007.4
20260507201536 17 336 1.6 11.3 0.00 0.94 0.89 36 1007.5
20260507200027 17 304 1.6 14.5 0.00 0.94 0.89 37 1007.6
20260507194528 17 0 1.6 14.5 0.00 0.94 0.89 36 1007.7
20260507193032 17 94 1.6 9.7 0.00 0.94 0.89 36 1007.9
20260507191534 17 0 0.0 6.4 0.00 0.94 0.89 38 1008.0
20260507190031 16 0 1.6 11.3 0.00 0.94 0.89 45 1008.3
20260507184528 16 0 0.0 14.5 0.00 0.94 0.89 38 1008.4
20260507183038 16 0 0.0 11.3 0.00 0.94 0.89 39 1008.7
20260507181530 16 0 0.0 14.5 0.00 0.94 0.89 44 1008.8
20260507180027 16 0 0.0 8.0 0.00 0.94 0.89 42 1008.8
20260507174532 16 0 0.0 11.3 0.00 0.94 0.89 46 1009.1
20260507173034 16 0 0.0 9.7 0.00 0.94 0.89 43 1009.5
20260507171531 16 264 1.6 19.3 0.00 0.94 0.89 44 1009.7
20260507170030 15 0 0.0 16.1 0.00 0.94 0.89 45 1009.9
20260507164531 15 0 0.0 0.0 0.00 1.04 0.89 46 1010.2
20260507163030 15 0 0.0 0.0 0.00 1.04 0.89 48 1010.5
20260507161529 15 0 0.0 12.9 0.00 1.04 0.89 48 1010.5
20260507160032 14 0 1.6 14.5 0.00 1.04 0.89 48 1010.9
20260507154528 13 291 0.0 16.1 0.00 1.24 0.89 53 1010.8
20260507153031 13 0 1.6 22.5 0.00 1.24 0.89 52 1011.0
20260507151531 13 106 1.6 12.9 0.00 1.24 0.89 59 1011.1
20260507150030 13 268 0.0 16.1 0.00 1.24 0.89 55 1011.4
20260507144528 13 0 0.0 11.3 0.00 1.27 0.89 60 1011.5
20260507143050 12 0 0.0 11.3 0.00 1.27 0.89 63 1011.7
20260507141538 12 271 4.8 16.1 0.00 1.27 0.89 65 1011.7
20260507140028 11 323 1.6 14.5 0.00 1.27 0.89 69 1011.8
20260507134528 11 0 1.6 12.9 0.00 1.27 0.89 77 1011.7